Theta_e
313 312 311 310 310 310 309 309 309 310 311 312 313 313 312 310 309 311 310 311 317 317 321 322 325 341 346 346 347 348 356 359 356 355 354 348 352 350 348 346 347 347 346 345 347
314 313 311 311 310 310 310 309 309 310 311 312 314 313 311 309 314 316 310 312 316 317 319 324 327 330 344 348 347 350 355 352 349 348 351 350 349 352 351 348 350 348 346 347 348
314 313 313 312 311 310 310 310 310 310 311 315 314 312 309 316 326 324 312 315 316 316 315 322 325 327 340 347 350 351 355 350 348 346 348 352 352 349 352 351 349 350 350 348 347
315 315 314 314 313 311 310 310 310 310 312 314 311 309 317 320 325 326 312 316 317 315 314 319 323 328 335 341 350 354 353 350 348 349 348 352 350 351 350 350 346 345 347 347 348
316 316 315 315 314 314 312 310 311 311 313 315 311 320 320 327 327 328 313 316 316 316 315 320 326 326 334 349 350 351 353 350 350 348 348 347 350 351 351 348 346 344 346 347 348
316 316 316 316 316 315 313 311 311 312 314 315 313 320 324 325 328 328 318 317 319 316 315 323 326 324 339 348 345 348 353 351 349 349 349 351 350 351 350 348 347 346 347 347 347
316 316 316 316 316 316 314 312 312 313 315 315 316 322 325 324 327 325 322 317 316 317 316 319 323 321 340 345 350 351 355 353 352 350 351 348 351 354 349 348 348 347 346 346 346
317 316 316 316 317 316 315 313 313 313 316 314 319 323 329 327 326 321 315 318 317 317 317 319 320 321 346 347 350 354 353 357 355 351 350 348 354 351 348 350 349 348 346 346 346
318 317 317 317 317 317 314 314 318 315 315 319 323 324 325 324 324 323 317 314 313 313 315 317 317 339 345 349 353 354 357 356 358 353 352 351 354 348 349 350 351 349 348 347 347
318 318 317 317 317 316 312 320 320 319 322 323 324 325 324 326 321 322 320 316 318 317 316 316 319 337 340 348 346 355 354 352 354 355 354 355 355 349 349 350 351 350 349 348 348
318 318 317 317 317 314 313 318 321 321 325 323 324 324 324 323 320 320 320 320 316 316 318 315 320 328 340 345 335 345 350 344 350 354 356 357 354 353 349 350 350 349 349 347 348
318 318 317 317 317 314 314 321 318 316 321 318 320 322 322 323 323 320 319 321 319 318 315 318 321 320 320 332 330 329 330 334 353 353 353 352 355 351 350 351 350 349 348 347 346
319 318 318 316 316 315 315 317 318 315 322 323 323 324 325 325 325 323 320 318 319 319 317 319 320 315 319 322 326 327 328 332 336 353 350 357 357 356 353 348 349 348 347 346 346
320 318 317 316 315 316 315 317 315 315 327 327 326 326 325 325 325 321 320 320 318 319 318 318 317 317 316 318 320 328 325 326 353 352 349 353 350 352 355 355 349 349 348 347 346
321 318 317 314 315 318 315 315 316 317 334 327 327 322 320 324 323 321 317 318 319 319 318 322 318 318 318 318 319 327 325 335 348 347 344 354 349 350 356 357 355 350 347 347 346
321 318 316 314 314 316 317 315 317 326 332 329 324 325 324 323 321 319 321 320 319 320 320 323 321 318 320 318 319 330 337 339 341 344 346 343 347 344 358 356 352 350 349 346 346
320 319 314 313 317 315 316 318 325 326 326 330 326 323 325 324 324 323 323 323 323 325 325 322 321 321 321 328 324 337 340 344 344 345 341 339 345 342 347 346 348 349 349 347 346
319 316 314 316 316 316 316 324 326 323 326 326 324 322 325 324 324 323 323 324 321 321 322 325 324 322 321 325 334 337 340 335 337 337 335 339 345 343 345 343 346 345 345 347 348
317 314 316 316 316 314 321 326 325 323 325 325 323 325 326 324 324 322 324 324 323 322 325 326 327 321 323 322 328 328 338 328 331 330 333 334 340 340 344 342 343 344 343 347 346
313 312 316 316 317 314 323 322 324 320 323 324 326 323 327 325 325 324 323 323 323 321 323 325 328 328 327 326 326 325 325 328 330 333 332 338 345 339 348 347 342 342 340 339 340
310 317 316 313 311 318 321 323 323 321 323 323 324 323 325 323 324 323 326 324 322 320 322 323 326 331 330 329 329 329 331 335 333 335 331 334 336 343 345 345 344 339 339 342 343
311 319 314 317 315 313 321 321 319 323 322 320 323 324 325 324 325 324 325 326 322 322 323 325 328 331 333 331 330 329 334 334 330 341 342 340 337 339 341 341 340 339 338 342 343
314 315 316 313 317 318 322 322 320 319 320 321 325 323 323 325 327 324 325 325 321 323 326 328 332 335 334 331 331 334 333 331 333 338 345 340 335 341 340 341 338 338 339 342 343
315 322 324 321 319 325 327 326 326 323 323 323 326 324 324 326 324 327 325 325 323 325 329 330 330 332 332 333 333 335 334 333 334 336 337 337 335 340 344 343 339 341 343 342 341
316 321 320 325 325 321 324 324 325 327 326 324 323 324 325 327 324 322 322 325 328 332 323 328 332 329 327 326 330 332 334 334 335 335 336 335 338 337 339 344 341 338 340 342 341
320 321 318 318 317 322 319 323 326 324 327 326 324 326 325 327 326 327 324 327 329 327 326 322 329 328 330 328 326 332 332 334 333 333 335 336 339 335 335 337 341 338 342 344 343
311 313 318 315 318 319 317 322 325 319 322 325 325 325 327 326 327 328 327 322 322 328 328 328 328 331 331 331 331 332 332 334 334 335 335 339 337 338 339 340 341 340 340 344 347
Wind_Speed
15 14 14 13 13 12 12 12 12 12 12 12 10 7 5 6 4 2 6 5 8 11 9 10 6 5 2 3 2 1 2 4 5 5 3 1 3 4 1 8 4 4 4 13 22
17 16 15 15 14 13 12 12 12 12 12 11 8 6 5 6 2 6 5 11 13 10 10 10 6 5 2 2 2 2 1 4 6 6 5 5 3 5 1 11 3 8 14 22 21
20 19 18 17 15 14 12 11 11 12 11 8 6 4 4 5 2 2 9 14 15 10 8 5 7 2 1 1 2 2 2 1 5 7 9 5 3 2 1 9 6 12 17 19 19
21 20 19 19 18 14 12 10 10 10 9 6 4 4 3 1 4 2 11 14 13 8 8 8 4 2 1 2 1 3 2 2 6 7 5 6 2 2 1 2 7 16 20 20 16
22 22 21 20 20 17 15 11 9 8 7 5 3 5 2 1 3 3 12 16 12 7 6 5 4 2 1 3 3 3 6 6 8 8 9 3 1 3 5 1 13 17 16 16 14
25 24 24 23 21 19 15 11 9 8 6 3 2 4 1 2 2 4 12 16 10 8 4 3 2 2 4 3 2 3 9 11 7 7 5 8 2 4 3 13 15 19 17 14 14
25 25 25 25 22 21 17 12 10 8 5 2 1 3 1 2 1 6 10 14 12 8 3 2 1 0 5 5 7 11 10 8 5 5 4 8 3 5 4 11 16 17 15 13 13
26 26 27 25 24 22 17 11 8 6 2 1 1 2 2 1 0 8 8 8 9 9 2 1 1 3 1 8 5 2 2 2 4 6 4 4 1 6 4 11 14 17 14 13 14
29 27 28 28 26 22 13 9 5 3 4 3 2 2 2 1 4 8 7 6 7 8 2 1 1 2 6 6 4 2 2 2 5 6 5 7 1 3 5 12 13 15 14 13 13
30 29 30 29 28 19 6 5 7 6 3 2 0 2 2 1 4 7 10 9 3 6 4 2 2 4 3 5 2 5 3 2 2 9 6 9 8 2 7 12 14 14 14 14 14
31 30 31 29 27 11 2 3 1 1 2 4 1 2 2 0 6 4 6 6 3 2 4 2 4 9 13 8 2 2 3 1 2 8 7 11 8 8 8 11 12 10 15 15 17
33 32 33 31 22 4 3 1 6 3 6 6 8 6 7 2 3 4 10 3 2 4 2 3 8 5 2 6 4 3 3 1 4 7 7 4 10 9 11 15 17 15 16 17 15
33 34 34 32 12 3 4 4 6 5 3 4 4 4 3 9 5 10 9 4 3 4 4 8 1 4 7 7 8 7 7 4 1 7 4 1 3 5 7 10 13 16 19 17 16
34 35 34 32 3 11 3 7 10 6 2 2 3 3 6 4 4 3 10 4 3 8 5 6 3 4 9 11 9 10 10 3 9 7 1 5 1 2 6 10 11 13 16 17 17
34 39 35 27 12 3 3 7 1 3 2 3 3 4 3 5 7 4 2 4 5 6 5 2 7 9 7 10 14 7 4 9 11 4 3 5 3 3 2 8 13 12 13 15 14
35 39 37 11 7 7 7 6 3 2 5 3 5 6 6 2 3 4 5 1 1 4 6 8 1 4 5 4 14 9 9 8 5 2 4 1 3 2 4 3 3 2 6 14 14
38 36 27 9 2 3 4 3 2 4 2 4 4 5 7 6 7 6 9 9 6 4 6 2 5 2 4 6 7 7 10 4 4 4 3 1 4 4 5 5 5 7 7 6 13
39 34 16 4 5 8 2 3 6 2 5 1 1 3 6 9 5 8 6 9 7 4 2 4 6 6 4 4 6 10 9 6 8 6 4 3 4 1 3 1 3 6 8 11 10
36 16 4 9 8 6 4 7 6 6 1 2 0 4 5 5 3 6 9 7 7 14 7 5 2 0 1 2 3 6 5 2 4 2 3 1 3 7 6 5 4 6 6 6 5
26 9 7 11 7 4 4 5 3 3 1 1 1 1 5 3 9 9 8 5 8 15 10 3 3 1 5 3 11 2 7 4 3 7 8 4 4 6 7 11 4 3 4 5 5
6 2 6 10 2 0 5 4 4 5 2 1 2 2 0 1 6 5 7 4 6 8 11 6 4 3 3 1 7 4 4 4 2 2 7 8 4 4 5 8 7 4 3 6 5
5 2 5 4 1 1 2 2 2 2 2 1 2 5 3 2 2 5 9 9 10 12 10 6 2 3 2 2 2 1 3 5 5 5 0 3 4 3 2 4 3 3 4 3 5
5 3 4 1 2 1 2 3 3 6 7 3 4 6 4 3 3 5 6 3 10 12 13 10 3 4 4 4 3 4 3 3 5 2 6 4 3 3 3 4 4 4 2 2 4
3 3 2 3 2 2 4 2 3 3 4 3 3 2 3 5 6 4 3 1 10 7 4 9 4 10 10 7 4 5 6 6 5 4 4 8 6 5 9 10 7 4 2 2 3
2 2 2 3 2 4 2 3 3 3 2 2 1 3 0 4 4 6 6 3 3 9 4 4 6 4 3 4 4 5 10 12 9 4 6 0 6 4 6 12 10 6 3 2 2
3 2 1 2 3 3 1 1 2 4 3 2 1 6 2 4 4 3 6 4 5 6 5 2 5 4 4 3 6 6 6 11 7 4 8 4 9 4 1 4 9 9 6 4 3
2 0 2 1 2 3 1 0 2 7 6 9 5 7 9 7 8 15 14 14 7 3 7 7 8 6 5 2 7 6 12 12 8 7 7 8 5 7 5 7 8 8 7 7 4
Wind_Direction
7 2 1 353 347 341 337 335 334 333 333 331 331 322 305 304 311 243 230 208 169 159 148 148 153 125 92 86 49 138 97 161 191 170 165 80 82 27 344 133 71 30 112 134 149
10 6 2 356 348 340 335 334 334 335 335 334 335 335 326 334 308 231 203 172 164 150 155 160 163 151 78 50 35 31 64 177 164 145 150 130 72 351 156 154 85 80 106 132 148
17 12 5 359 352 345 338 335 333 337 342 347 353 350 356 353 249 70 177 168 169 164 148 167 137 159 107 46 33 64 29 133 130 120 123 112 111 27 124 188 192 157 146 150 156
14 10 5 2 357 351 339 334 337 340 344 359 9 8 5 18 97 76 160 170 165 160 144 155 151 163 121 82 87 102 42 43 131 117 106 114 120 131 230 6 179 159 155 155 167
11 8 4 3 1 356 344 332 331 334 337 348 17 29 47 208 66 126 162 171 177 169 181 174 154 162 62 104 126 99 111 80 117 120 115 116 23 333 274 182 140 145 160 164 170
9 8 4 360 356 352 343 327 321 321 318 336 26 26 321 112 336 143 175 177 184 178 187 167 117 155 100 124 33 120 105 115 132 128 138 161 164 302 351 143 148 157 166 175 175
7 5 1 356 353 349 343 325 315 309 300 327 78 31 250 56 96 142 165 192 194 193 177 229 69 327 140 126 126 132 101 116 118 141 150 144 205 227 87 165 157 171 172 179 184
4 2 359 355 349 347 339 323 306 290 250 168 71 33 254 203 216 163 157 162 189 191 102 360 262 90 117 124 121 128 126 126 148 177 134 201 133 168 174 178 173 175 181 187 194
1 359 357 353 348 344 336 338 351 164 140 123 46 340 86 252 187 190 157 145 151 188 220 218 134 87 144 155 137 171 132 153 149 190 154 203 306 128 169 178 184 184 188 199 203
359 356 355 352 347 342 346 86 82 96 106 34 331 221 206 102 156 152 180 146 143 146 148 166 97 157 156 195 218 176 177 173 191 191 192 203 244 137 180 192 194 193 198 204 216
357 354 353 350 347 346 69 108 255 152 175 241 335 309 290 45 146 143 157 156 127 101 177 63 191 194 197 179 10 191 157 149 203 170 187 212 233 223 193 209 188 213 212 211 219
355 352 350 349 346 9 41 102 103 73 307 233 252 253 260 274 158 131 152 148 156 177 143 177 226 204 233 205 245 263 298 7 93 166 216 222 241 221 193 206 207 201 214 216 224
352 350 348 348 348 11 327 141 153 337 269 289 201 197 189 178 185 184 180 138 146 162 197 227 238 155 182 177 208 243 251 223 298 155 208 276 259 198 209 226 213 216 220 215 217
348 347 344 346 19 335 272 165 309 179 304 225 219 206 143 183 182 168 179 158 166 209 177 249 207 195 193 217 202 242 230 217 151 174 241 219 110 266 238 239 234 224 219 219 218
343 341 339 337 295 264 164 301 330 186 264 123 152 130 143 196 133 166 191 164 179 169 189 208 177 188 195 212 190 240 159 156 162 144 189 180 257 135 279 261 245 227 232 229 220
337 335 332 329 278 249 267 304 168 265 245 170 146 165 160 161 118 122 171 106 63 199 224 259 184 213 213 168 194 146 112 106 126 165 232 115 270 216 195 223 280 193 246 226 218
333 332 321 282 234 176 338 171 183 226 5 168 194 173 197 168 184 169 175 195 215 199 226 212 211 216 188 115 161 185 186 162 194 209 267 136 219 282 193 222 265 301 298 264 236
331 331 322 283 258 256 244 154 208 226 246 330 48 154 200 167 191 178 169 216 210 209 281 230 187 191 170 236 162 178 215 203 227 240 247 158 228 219 209 191 242 273 297 301 261
332 330 325 324 301 188 188 202 208 203 249 295 277 196 196 191 188 183 208 222 217 196 217 181 201 177 318 148 182 158 200 61 110 92 253 175 261 250 201 235 253 279 306 330 322
330 328 343 327 169 160 187 220 232 227 306 220 225 227 212 180 182 189 188 203 220 193 207 179 175 43 135 142 54 200 126 184 222 225 247 210 253 251 220 222 221 265 297 319 322
351 351 25 46 37 354 201 215 239 240 247 17 156 300 225 155 218 197 211 224 212 170 192 167 235 136 205 234 162 145 171 73 111 310 255 260 246 209 243 213 215 223 321 340 335
349 313 347 340 159 352 200 217 283 227 202 296 236 234 224 225 242 221 221 230 173 155 178 176 176 171 104 82 349 81 155 187 244 189 73 298 261 181 212 167 212 282 302 332 331
346 295 346 346 262 228 312 275 264 246 264 235 233 220 188 220 302 226 217 224 171 170 168 169 187 154 150 165 168 215 155 126 108 130 186 226 254 137 164 198 217 278 248 246 302
321 336 1 54 25 17 358 323 278 334 252 234 263 223 187 254 224 288 267 166 178 194 113 142 137 209 211 205 146 181 183 182 223 206 181 240 261 193 206 217 211 208 204 253 315
4 48 28 348 67 342 291 306 298 296 333 302 182 121 134 239 212 225 243 246 116 144 121 198 175 172 137 147 177 196 185 180 204 195 230 289 230 261 211 216 204 187 176 167 55
353 349 360 277 288 296 191 214 271 334 301 258 236 333 312 249 277 308 351 218 204 184 161 142 144 147 159 204 219 219 212 198 203 188 250 248 264 200 131 164 181 190 203 223 237
15 52 281 358 307 282 240 313 150 355 270 269 331 335 303 281 287 291 267 262 282 221 164 157 145 171 183 169 171 229 217 199 202 196 223 225 248 162 162 173 187 199 227 243 227